Regional Weather Roundup
Issued by NWS

Home | Current Version | Previous Version | Text Only | Print | Product List | Glossary Off
Versions: 1 2 3 4 5 6 7 8 9 10 11 12 13 14 15 16 17 18 19 20 21 22 23 24 25 26 27 28 29 30 31 32 33 34 35 36 37 38 39 40 41 42 43 44 45 46 47 48 49 50

000
ASUS45 KSLC 061010
RWRUT

UTAH REGIONAL WEATHER ROUNDUP
NATIONAL WEATHER SERVICE SALT LAKE CITY UT
400 AM MDT FRI MAY 06 2016

UTZ001>011-023>025-061100-

NORTHERN UTAH

CITY           SKY/WX    TMP DP  RH WIND       PRES   REMARKS
BRIGHAM CITY   CLOUDY    69  33  26 SE14G23   29.80S
HILL AFB       CLOUDY    65  38  36 E16       29.81F
LOGAN          CLOUDY    67  38  34 S10       29.82F
OGDEN          CLOUDY    68  37  32 S7        29.79F
PROVO AIRPORT  CLOUDY    66  37  34 E15G21    29.80F
SALT LAKE CITY CLOUDY    71  36  27 E12       29.78F
VERNAL         CLOUDY    58  44  60 N9        29.93F
WENDOVER       MOCLDY    66  36  32 N12       29.76S
HEBER CITY     LGT RAIN  55  41  58 NE5       29.91R

$$

UTZ012>022-026-027-061100-

SOUTHERN/CENTRAL UTAH

CITY           SKY/WX    TMP DP  RH WIND       PRES   REMARKS
BLANDING       CLOUDY    59  39  47 SE5       29.97R
BRYCE CANYON   CLOUDY    47  24  40 S8        29.96F
CEDAR CITY     CLOUDY    52  29  41 N3        29.83F
DELTA          CLOUDY    55  30  38 S5        29.78F
HANKSVILLE     CLOUDY    61  39  44 W6        29.81R
MILFORD        CLOUDY    53  30  41 S13       29.82R
MOAB/CYNLANDS  MOCLDY    66  39  37 SE8       29.77F
PRICE          MOCLDY    60  36  40 NE16      29.87F
ST GEORGE      CLOUDY    64  30  27 SE8       29.76R
KANAB          CLOUDY    54  32  43 NE7       29.89

$$

REGIONAL REPORTS     COLORADO/ARIZONA

CITY           SKY/WX    TMP DP  RH WIND       PRES   REMARKS
CRAIG, CO      CLOUDY    41  34  76 S3        30.00S
GRAND JUNCTION CLOUDY    66  36  32 E15       29.87F
RIFLE          CLOUDY    49  38  65 NW6       29.99R
MONTROSE       CLOUDY    61  32  33 S9        29.96F
CORTEZ         PTCLDY    67  30  25 SE23G35   29.92F
PAGE, AZ       CLOUDY    64  25  22 S6        29.82R
GRAND CANYON   MOCLDY    50  18  28 E9G17     29.95S
KINGMAN        CLEAR     54  30  40 SE7       29.78S
FLAGSTAFF      MOCLDY    45  20  36 SW9       29.95S

$$

REGIONAL REPORTS    NEVADA/IDAHO/WYOMING

CITY           SKY/WX    TMP DP  RH WIND       PRES   REMARKS
LAS VEGAS, NV  PTCLDY    63  39  41 S18       29.66F
ELY            CLOUDY    47  29  49 S14       29.91R
ELKO           PTCLDY    57  30  35 NE12      29.80F
POCATELLO, ID  CLOUDY    60  43  53 W13       29.89R
BURLEY         CLOUDY    54  48  80 SE7       29.82S
EVANSTON, WY   CLOUDY    53  35  50 NE5       29.99F
ROCK SPRINGS   CLOUDY    52  30  43 N6        30.02S
KEMMERER         N/A     52  36  54 E20G30    30.02F

$$



USA.gov is the U.S. government's official web portal to all federal, state and local government web resources and services.